Weather History for Moriarty, NM

Change the Weather History Date:

Friday, October 5, 2012

  Actual Average (KABQ) Record (KABQ)
Temperature  
Mean Temperature 60 °F 62 °F  
Max Temperature 79 °F 73 °F 91 °F (1979)
Min Temperature 41 °F 50 °F 34 °F (1932)
Degree Days  
Heating Degree Days 5 4  
Month to date heating degree days 17  
Since 1 July heating degree days 43  
Cooling Degree Days 0 1  
Month to date cooling degree days 5  
Year to date cooling degree days 1317  
Growing Degree Days 10 (Base 50)    
Moisture  
Dew Point 28 °F    
Average Humidity 30    
Maximum Humidity 67    
Minimum Humidity 13    
Precipitation  
Precipitation 0.00 in 0.04 in 0.80 in (1901)
Month to date precipitation 0.21  
Year to date precipitation 7.57  
Snow  
Snow 0.00 in - - ()
Month to date snowfall  
Since 1 July snowfall  
Since 1 September snowfall  
Snow Depth -    
Sea Level Pressure  
Sea Level Pressure 30.17 in    
Wind  
Wind Speed 8 mph (West)    
Max Wind Speed 24 mph    
Max Gust Speed 32 mph    
Visibility 10 miles    
Events      
T = Trace of Precipitation, MM = Missing Value Source: NWS Daily Summary

Daily Weather History Graph

Daily Weather History Graph

Search for Another Location

Airport:

Trip Planner

Search our weather history database for the weather conditions in past years. The results will help you decide how hot, cold, wet, or windy it might be!

Date:

Astronomy

Oct. 05, 2012 Rise Set
Actual Time 7:02 AM MDT 6:41 PM MDT
Civil Twilight 6:37 AM MDT 7:06 PM MDT
Nautical Twilight 6:07 AM MDT 7:36 PM MDT
Astronomical Twilight 5:38 AM MDT 8:05 PM MDT
Moon 10:18 PM MDT (10/5) 12:01 PM MDT (10/5)
Length of Visible Light 12h 29m
Length of Day
11h 39m
Waning Gibbous, 73% of the Moon is Illuminated
Oct 5
Waning Gibbous
Oct 8
Last Quarter
Oct 15
New
Oct 21
First Quarter
Oct 29
Full

Hourly Weather History & Observations

Time (MDT) Temp. Windchill Dew Point Humidity Pressure Visibility Wind Dir Wind Speed Gust Speed Precip Events Conditions
12:15 AM 46.6 °F - 31.3 °F 55% 30.22 in 10.0 mi East 4.6 mph - N/A   Clear
12:35 AM 44.8 °F 42.4 °F 31.1 °F 59% 30.22 in 10.0 mi ENE 4.6 mph - N/A   Clear
12:55 AM 45.1 °F 42.0 °F 31.1 °F 58% 30.22 in 10.0 mi North 5.8 mph - N/A   Clear
1:15 AM 44.2 °F 41.8 °F 30.2 °F 58% 30.21 in 10.0 mi North 4.6 mph - N/A   Clear
1:35 AM 46.4 °F - 30.7 °F 54% 30.22 in 10.0 mi Calm Calm - N/A   Clear
2:15 AM 41.7 °F - 30.4 °F 64% 30.22 in 10.0 mi Calm Calm - N/A   Clear
2:35 AM 49.1 °F - 30.0 °F 48% 30.22 in 10.0 mi SW 9.2 mph - N/A   Clear
2:55 AM 56.8 °F - 27.7 °F 33% 30.22 in 10.0 mi WSW 8.1 mph - N/A   Clear
3:15 AM 55.2 °F - 27.3 °F 34% 30.21 in 10.0 mi SSW 6.9 mph - N/A   Clear
3:35 AM 58.6 °F - 27.3 °F 30% 30.21 in 10.0 mi SSW 5.8 mph - N/A   Clear
3:55 AM 60.4 °F - 27.9 °F 29% 30.21 in 10.0 mi SW 4.6 mph - N/A   Clear
4:15 AM 60.3 °F - 28.0 °F 29% 30.21 in 10.0 mi NNE 3.5 mph - N/A   Clear
4:35 AM 61.0 °F - 28.2 °F 29% 30.21 in 10.0 mi ENE 3.5 mph - N/A   Clear
4:55 AM 56.7 °F - 28.0 °F 33% 30.21 in 10.0 mi Calm Calm - N/A   Clear
5:15 AM 57.2 °F - 28.6 °F 34% 30.21 in 10.0 mi NNE 3.5 mph - N/A   Clear
5:35 AM 55.0 °F - 28.4 °F 36% 30.21 in 10.0 mi ENE 3.5 mph - N/A   Clear
5:55 AM 52.7 °F - 28.9 °F 40% 30.22 in 10.0 mi Calm Calm - N/A   Clear
6:15 AM 54.7 °F - 28.8 °F 37% 30.22 in 10.0 mi Calm Calm - N/A   Clear
6:35 AM 52.0 °F - 29.1 °F 41% 30.22 in 10.0 mi Calm Calm - N/A   Clear
6:55 AM 47.7 °F - 29.3 °F 49% 30.22 in 10.0 mi ENE 3.5 mph - N/A   Clear
7:15 AM 48.4 °F - 29.7 °F 48% 30.22 in 10.0 mi NE 3.5 mph - N/A   Clear
7:35 AM 49.1 °F - 30.4 °F 49% 30.23 in 10.0 mi Calm Calm - N/A   Clear
7:55 AM 53.8 °F - 31.3 °F 42% 30.23 in 7.0 mi ENE 3.5 mph - N/A   Clear
8:35 AM 63.3 °F - 32.0 °F 31% 30.23 in 10.0 mi South 3.5 mph - N/A   Clear
8:55 AM 66.2 °F - 32.2 °F 28% 30.23 in 10.0 mi West 11.5 mph 20.7 mph N/A   Clear
9:15 AM 67.3 °F - 32.4 °F 27% 30.23 in 10.0 mi West 20.7 mph 26.5 mph N/A   Clear
9:35 AM 68.2 °F - 32.5 °F 27% 30.22 in 7.0 mi West 17.3 mph - N/A   Clear
10:15 AM 70.0 °F - 31.8 °F 24% 30.21 in 5.0 mi West 23.0 mph 31.1 mph N/A   Haze
10:35 AM 70.7 °F - 31.6 °F 24% 30.22 in 7.0 mi West 21.9 mph 28.8 mph N/A   Clear
10:55 AM 71.2 °F - 31.1 °F 23% 30.22 in 7.0 mi West 19.6 mph 26.5 mph N/A   Clear
11:15 AM 72.0 °F - 30.7 °F 22% 30.21 in 10.0 mi West 16.1 mph 24.2 mph N/A   Clear
11:35 AM 72.7 °F - 30.6 °F 21% 30.20 in 10.0 mi West 19.6 mph 27.6 mph N/A   Clear
11:55 AM 73.2 °F - 30.2 °F 20% 30.20 in 10.0 mi West 18.4 mph 24.2 mph N/A   Clear
12:15 PM 74.1 °F - 30.2 °F 20% 30.19 in 10.0 mi West 12.7 mph 19.6 mph N/A   Clear
12:35 PM 74.7 °F - 28.6 °F 18% 30.18 in 10.0 mi West 17.3 mph 20.7 mph N/A   Clear
12:55 PM 75.6 °F - 28.8 °F 18% 30.17 in 10.0 mi West 16.1 mph 23.0 mph N/A   Clear
1:15 PM 75.6 °F - 27.3 °F 17% 30.16 in 10.0 mi West 15.0 mph 20.7 mph N/A   Clear
1:35 PM 76.3 °F - 28.6 °F 17% 30.16 in 10.0 mi West 10.4 mph 18.4 mph N/A   Clear
1:55 PM 77.5 °F - 27.1 °F 16% 30.14 in 10.0 mi WNW 16.1 mph 26.5 mph N/A   Clear
2:15 PM 78.3 °F - 27.0 °F 15% 30.13 in 10.0 mi West 15.0 mph 24.2 mph N/A   Clear
2:35 PM 77.9 °F - 25.5 °F 14% 30.12 in 10.0 mi West 16.1 mph 27.6 mph N/A   Clear
2:55 PM 78.8 °F - 25.9 °F 14% 30.11 in 10.0 mi West 9.2 mph 17.3 mph N/A   Clear
3:15 PM 79.3 °F - 26.6 °F 14% 30.11 in 10.0 mi WSW 21.9 mph - N/A   Clear
3:35 PM 79.9 °F - 26.4 °F 14% 30.10 in 10.0 mi West 21.9 mph 28.8 mph N/A   Clear
3:55 PM 79.0 °F - 25.3 °F 14% 30.10 in 10.0 mi West 19.6 mph 23.0 mph N/A   Clear
4:15 PM 78.8 °F - 25.2 °F 14% 30.10 in 10.0 mi West 16.1 mph 25.3 mph N/A   Clear
4:35 PM 78.3 °F - 24.4 °F 14% 30.10 in 10.0 mi West 11.5 mph 28.8 mph N/A   Clear
4:55 PM 78.3 °F - 24.3 °F 14% 30.10 in 10.0 mi West 19.6 mph 28.8 mph N/A   Clear
5:15 PM 77.2 °F - 23.9 °F 14% 30.10 in 10.0 mi West 20.7 mph 32.2 mph N/A   Clear
5:35 PM 76.5 °F - 23.0 °F 14% 30.10 in 10.0 mi West 11.5 mph 19.6 mph N/A   Clear
5:55 PM 75.9 °F - 21.4 °F 13% 30.10 in 10.0 mi WSW 13.8 mph - N/A   Clear
6:15 PM 74.5 °F - 22.1 °F 14% 30.10 in 10.0 mi West 11.5 mph - N/A   Clear
6:35 PM 72.5 °F - 21.4 °F 15% 30.10 in 10.0 mi West 11.5 mph - N/A   Clear
6:55 PM 70.0 °F - 21.4 °F 16% 30.11 in 10.0 mi West 9.2 mph - N/A   Clear
7:15 PM 67.5 °F - 21.9 °F 18% 30.11 in 10.0 mi West 8.1 mph - N/A   Clear
7:35 PM 63.1 °F - 21.9 °F 21% 30.12 in 10.0 mi West 8.1 mph - N/A   Clear
7:55 PM 62.8 °F - 21.9 °F 21% 30.12 in 10.0 mi WSW 6.9 mph - N/A   Clear
8:15 PM 60.6 °F - 21.7 °F 22% 30.13 in 10.0 mi WSW 6.9 mph - N/A   Clear
8:35 PM 59.7 °F - 21.6 °F 23% 30.13 in 10.0 mi West 8.1 mph - N/A   Clear
8:55 PM 57.2 °F - 21.2 °F 25% 30.14 in 10.0 mi WSW 8.1 mph - N/A   Clear
9:15 PM 54.5 °F - 21.7 °F 28% 30.14 in 10.0 mi West 6.9 mph - N/A   Clear
9:35 PM 58.1 °F - 21.6 °F 24% 30.14 in 10.0 mi West 8.1 mph - N/A   Clear
9:55 PM 59.0 °F - 21.6 °F 24% 30.14 in 10.0 mi West 9.2 mph - N/A   Clear
10:35 PM 54.9 °F - 32.7 °F 43% 30.16 in 10.0 mi East 12.7 mph - N/A   Clear
10:55 PM 52.7 °F - 39.2 °F 60% 30.17 in 10.0 mi East 24.2 mph 28.8 mph N/A   Clear
11:15 PM 50.7 °F - 38.8 °F 64% 30.17 in 10.0 mi East 17.3 mph 26.5 mph N/A   Clear
11:35 PM 49.3 °F - 38.5 °F 66% 30.16 in 10.0 mi East 20.7 mph 28.8 mph N/A   Clear
11:55 PM 48.9 °F - 38.5 °F 67% 30.17 in 10.0 mi East 23.0 mph 29.9 mph N/A   Clear